Location: Watson Lake
(60.1170°N, 128.8000°W)
Time: 12:13:54
(UTC-07:00)

Daily predictions for brighter satellites

Satellite Brightness Start Highest point End
(mag) Time Altitude Azimuth Time Altitude Azimuth Time Altitude Azimuth
NOSS 3-1 (A) 4.1 23:07:36 10° WNW 23:14:40 73° SW 23:22:36 10° SE
Cosmos 1727 Rocket 4.2 23:11:27 10° NNW 23:17:38 75° W 23:23:48 10° S
NOSS 2-2 (C) 4.0 23:14:05 10° SW 23:18:41 81° SSE 23:24:37 10° ENE
Cosmos 1536 Rocket 4.1 23:15:42 10° NNW 23:20:08 60° W 23:24:32 10° S
APEX 4.2 23:16:43 10° S 23:21:06 48° ESE 23:26:47 10° NE
Cosmos 2084 3.6 23:21:39 10° SSW 23:25:17 41° SE 23:28:58 10° ENE
CZ-4 R/B 3.8 23:21:17 10° NNE 23:26:02 71° ESE 23:30:41 10° S
Cosmos 2369 Rocket 4.1 23:25:29 10° ESE 23:27:50 13° E 23:30:10 10° ENE
Cosmos 2219 4.3 23:23:15 10° NW 23:28:38 41° NNE 23:33:57 10° E
Cosmos 1420 Rocket 4.0 23:23:43 10° SSW 23:28:56 74° ESE 23:34:10 10° NE
Cosmos 1354 Rocket 4.1 23:23:43 10° NNW 23:29:01 81° NE 23:34:18 10° SE
Okean 1 3.5 23:25:14 10° NNW 23:29:19 74° W 23:33:23 10° S
Cosmos 1486 Rocket 4.3 23:24:44 10° NW 23:30:05 69° WSW 23:35:22 10° SSE
Cosmos 2227 Rocket 4.1 23:25:37 10° NW 23:30:36 30° NNE 23:35:36 10° ENE
Cosmos 1892 Rocket 4.3 23:29:44 10° N 23:33:55 43° ENE 23:38:06 10° SE
ATLAS 2AS CENTAUR R/B 3.2 23:27:44 10° WNW 23:35:58 89° NNE 23:44:01 10° ESE
ARGOS 4.4 23:31:03 10° SSW 23:35:58 36° W 23:40:56 10° NNW
Cosmos 1633 4.4 23:33:56 10° SE 23:36:36 19° E 23:39:16 10° NE
Cosmos 1408 4.4 23:33:29 10° SW 23:36:50 33° WNW 23:40:12 10° N
NOSS 2-2 (E) 4.2 23:32:08 10° WSW 23:36:56 87° NNW 23:43:09 10° ENE
Cosmos 44 4.2 23:31:55 10° WNW 23:37:18 58° NNE 23:42:27 10° E
H-2A R/B 2.8 23:35:54 10° S 23:41:08 52° W 23:46:17 10° NNW
CZ-4B R/B 3.7 23:37:13 10° NNE 23:42:17 77° WNW 23:47:11 10° SSW
Cosmos 1825 4.1 23:39:04 10° SW 23:42:33 32° WNW 23:46:02 10° N
Meteor 1-20 Rocket 4.3 23:37:27 10° S 23:42:57 65° E 23:48:25 10° NNE
Cosmos 2084 Rocket 3.5 23:40:36 10° WNW 23:44:21 53° SW 23:48:13 10° SE
NOSS 3-1 (C) 4.3 23:37:43 10° WNW 23:44:38 53° SW 23:52:21 10° SSE
Cosmos 1689 Rocket 4.2 23:43:42 10° ESE 23:46:13 22° ENE 23:48:45 10° N
Cosmos 1452 Rocket 4.2 23:42:24 10° SW 23:47:38 61° NW 23:52:55 10° NNE
SL-8 Rocket 4.4 23:44:14 10° SSW 23:50:28 67° WNW 23:56:42 10° NNE
Cosmos 1833 Rocket 4.2 23:46:13 10° NW 23:50:56 28° WSW 23:55:39 10° SSW
Cosmos 1461 4.1 23:47:09 10° W 23:51:34 51° NNW 23:55:48 10° ENE
Cosmos 2297 Rocket 4.1 23:47:01 10° NW 23:51:59 30° NNE 23:56:58 10° ENE
USA 234 4.2 23:49:18 10° E 23:54:28 24° SE 23:59:37 10° S
Cosmos 2151 Rocket 4.0 23:50:33 10° SSW 23:55:04 70° WNW 23:59:38 10° NNE
